Wind_Speed
27 25 24 24 23 20 18 16 15 13 11 9 7 5 5 7 8 7 6 5 5 9 11 15 9 13 6 4 4 3 4 1 4 6 4 6 5 4 1 6 3 2 6 4 17
24 25 24 24 24 23 21 18 16 15 12 10 8 6 4 5 8 9 10 9 9 10 8 8 6 11 4 4 3 4 4 7 3 2 2 3 5 10 6 5 2 3 3 14 22
23 24 24 24 23 23 22 20 18 16 14 12 9 7 4 2 1 5 6 7 6 6 5 3 4 2 2 2 1 2 4 3 1 1 2 3 2 2 8 3 6 11 9 10 13
27 24 23 24 24 23 22 21 19 17 15 12 10 7 4 3 6 1 2 1 2 4 4 2 1 1 1 2 1 2 1 1 2 4 2 4 1 2 1 4 7 10 12 9 8
25 26 24 24 24 23 22 21 19 17 15 12 10 8 5 2 7 4 2 1 0 1 3 3 3 4 4 2 1 2 2 2 2 5 3 1 3 2 2 4 2 10 9 9 9
22 25 25 24 24 24 23 22 20 18 15 13 10 9 4 4 3 5 3 1 2 2 3 4 4 2 3 1 3 1 1 2 3 2 4 2 1 4 1 2 6 7 9 9 9
22 22 22 25 25 25 24 22 21 19 15 12 10 8 2 9 3 4 6 4 3 2 3 4 1 2 2 3 1 3 2 4 2 1 1 0 5 5 2 6 1 4 6 6 9
34 19 25 25 25 25 25 23 20 18 15 13 11 4 5 5 7 5 5 5 4 2 4 4 2 3 3 2 5 4 4 1 2 2 1 4 6 4 4 3 7 6 6 5 3
30 28 25 24 26 25 24 24 20 17 15 13 8 3 5 2 6 11 4 3 3 3 3 5 4 3 4 5 3 4 3 4 6 5 2 3 5 4 2 6 5 5 8 6 4
27 30 27 24 25 26 25 24 21 18 15 9 5 2 3 4 4 6 8 3 1 3 3 4 4 3 3 3 6 6 4 4 5 3 4 4 9 7 6 4 7 7 5 8 6
20 29 32 28 27 29 28 19 9 6 9 5 8 3 4 6 5 4 6 4 2 4 4 1 4 8 11 4 3 5 3 4 3 4 4 6 8 9 9 6 8 8 7 7 5
20 20 30 38 30 31 32 8 10 6 5 3 2 1 3 4 3 2 7 5 4 4 4 4 6 4 4 3 4 1 3 4 1 1 5 3 10 10 9 7 9 11 9 9 6
23 21 23 32 22 30 33 26 21 21 4 2 3 3 3 4 3 7 8 4 3 5 5 6 4 8 6 4 5 2 3 2 0 3 2 5 7 6 6 6 7 7 8 7 12
22 23 21 25 17 23 24 33 26 11 3 5 7 6 5 5 3 6 10 5 2 8 6 3 3 6 5 4 6 4 6 4 3 3 3 2 5 6 4 7 5 5 7 8 9
21 22 23 31 14 17 25 36 25 5 7 11 9 9 9 8 7 3 6 3 7 6 6 7 5 4 3 5 7 5 5 5 2 1 2 1 1 7 4 6 6 1 4 5 7
22 21 20 21 32 23 32 36 14 6 7 7 8 10 11 5 3 4 4 2 4 4 2 5 1 6 9 4 6 6 6 6 4 2 3 7 7 5 4 4 1 3 5 6 7
23 20 22 20 13 51 33 15 10 8 5 10 9 14 19 10 6 6 13 9 7 7 6 2 2 1 3 6 2 4 6 1 2 2 6 1 2 7 7 5 4 8 9 7 6
22 19 22 26 20 35 30 10 12 7 7 3 10 18 15 13 8 7 14 12 8 3 5 10 4 8 6 7 7 5 6 5 7 4 4 3 6 5 2 5 5 8 8 7 6
18 17 17 20 22 32 11 17 10 10 9 13 17 18 9 13 7 11 14 15 11 9 6 5 4 2 2 3 8 5 6 5 5 2 2 3 6 9 2 6 7 7 7 6 6
16 9 13 33 28 21 2 14 8 7 9 17 9 11 13 19 10 16 16 15 7 9 4 6 3 1 1 4 4 5 7 2 2 1 4 3 5 4 2 3 4 5 6 6 5
11 2 5 22 21 8 9 7 4 6 10 8 7 8 9 15 10 15 14 3 17 10 8 4 3 0 5 6 10 4 4 3 5 4 4 1 5 5 4 2 8 7 7 6 6
7 4 10 30 8 2 7 6 4 12 3 4 5 6 12 20 12 15 10 6 14 13 10 4 3 5 11 2 3 4 5 5 4 4 3 2 5 3 5 4 6 6 5 4 6
3 4 7 19 9 4 3 7 9 15 7 7 5 4 5 13 6 4 7 7 9 11 15 7 3 4 1 3 4 4 4 6 4 3 6 5 4 4 4 6 5 7 4 4 5
3 4 1 3 4 11 7 8 7 13 5 5 6 7 9 13 3 9 6 2 8 6 8 7 2 4 5 3 5 7 9 6 11 5 5 5 3 5 4 5 4 5 5 5 7
2 4 4 8 5 14 13 11 13 7 3 6 3 8 11 8 4 5 5 4 5 11 5 6 6 4 2 2 2 4 10 15 14 11 8 7 9 8 7 7 8 6 3 5 7
5 3 2 4 13 21 19 19 25 8 8 7 11 14 9 16 10 11 10 5 6 2 5 3 3 4 3 2 1 4 8 9 10 7 7 4 10 6 7 4 6 7 6 6 7
5 1 2 9 13 17 10 20 28 15 1 6 16 15 7 12 8 6 6 6 11 11 5 6 5 3 2 4 4 7 7 7 5 5 11 14 16 6 8 9 7 8 7 7 8
Wind_Direction
233 231 226 224 220 220 217 213 211 211 210 215 221 235 274 300 305 303 272 254 281 306 319 328 338 346 347 11 27 115 63 187 210 159 219 177 139 142 111 119 96 122 155 230 165
231 230 231 225 221 217 216 214 211 208 209 214 221 236 260 297 317 274 253 259 273 294 315 354 351 349 5 1 15 82 116 208 211 239 300 233 168 158 133 141 77 83 70 142 155
228 228 229 226 221 218 215 212 211 210 210 215 222 227 243 278 317 243 227 242 268 284 281 287 314 1 338 349 356 139 181 197 257 6 252 230 220 211 123 207 201 170 162 149 161
228 228 223 224 222 217 214 212 210 211 212 212 214 214 210 153 223 182 171 356 317 282 230 222 203 116 225 209 328 151 292 217 20 354 24 152 0 198 182 226 195 178 153 152 165
236 228 226 218 220 218 212 208 206 206 208 208 204 192 156 148 250 185 176 20 301 203 189 196 160 149 181 208 35 153 227 53 77 44 55 44 39 314 272 358 71 138 141 159 172
240 227 226 220 214 214 211 203 202 203 202 200 192 180 140 206 191 197 204 214 133 183 187 185 196 189 160 195 156 96 327 17 346 46 32 60 315 29 336 2 70 139 164 172 179
251 238 223 221 212 211 209 204 199 199 195 192 185 171 137 227 200 207 211 204 180 141 169 192 207 119 129 129 118 74 82 359 296 279 94 220 309 233 151 29 244 208 195 189 206
241 242 228 220 215 210 205 204 196 192 182 180 171 167 227 218 208 210 200 212 200 181 160 148 106 116 119 100 28 79 55 114 286 175 298 102 253 267 349 174 243 261 237 217 233
226 236 234 216 213 208 204 196 189 183 169 171 150 174 247 212 210 216 207 196 165 142 120 128 97 108 53 102 48 358 210 207 319 207 142 153 246 258 64 35 306 240 248 234 211
223 223 229 217 214 207 201 189 179 166 154 142 117 164 234 206 173 184 201 194 155 129 60 67 63 107 96 135 204 185 185 219 213 238 200 189 246 259 265 227 259 294 271 241 213
230 223 229 234 217 206 194 160 144 185 167 187 170 194 134 125 123 152 167 145 94 76 156 140 126 193 199 140 85 140 155 200 220 230 170 234 258 255 262 270 263 251 244 241 165
235 226 226 221 219 206 192 192 177 143 139 124 163 57 119 147 111 166 161 144 144 158 133 62 225 170 145 150 108 15 171 244 298 71 167 292 274 261 258 238 226 232 224 199 162
235 229 226 218 231 212 197 193 164 150 130 216 159 167 170 153 180 186 150 130 122 138 176 170 217 163 148 156 170 220 200 220 270 354 32 348 279 273 275 254 248 236 220 177 177
227 227 227 215 224 208 202 189 169 160 137 207 180 232 150 139 257 171 168 137 154 182 142 231 253 150 142 180 143 213 206 163 141 61 236 21 286 302 285 287 283 256 195 170 144
229 228 220 208 200 219 194 190 169 90 217 173 165 166 148 171 141 204 166 76 162 177 136 237 173 143 146 180 158 213 141 158 169 119 355 276 288 271 294 278 245 157 139 125 130
233 230 218 222 204 228 185 181 138 171 213 170 139 163 151 173 132 106 130 61 151 140 102 203 25 157 186 145 161 134 88 57 54 85 299 207 179 262 222 235 38 118 129 129 123
227 225 212 210 207 216 173 159 188 205 138 175 169 170 174 166 140 157 176 178 164 164 191 152 225 269 148 95 62 111 107 37 342 238 232 17 197 262 266 272 234 177 158 143 127
222 218 226 227 234 189 207 182 200 144 182 140 147 156 181 148 183 162 168 185 224 144 140 177 219 181 187 178 165 176 154 155 200 199 263 88 233 248 239 7 349 112 119 126 136
208 221 229 231 213 188 206 196 183 176 153 150 138 158 175 178 142 170 196 197 199 181 154 139 253 128 164 146 141 187 200 160 106 39 47 226 285 300 120 53 66 96 121 145 173
191 214 231 220 201 174 277 201 171 159 137 141 145 178 172 176 161 180 180 199 195 181 195 217 110 289 122 102 61 148 149 99 28 174 248 276 280 245 315 152 102 135 147 190 201
165 176 250 199 201 183 214 199 155 176 148 138 156 142 168 172 172 185 188 207 187 182 157 164 103 114 125 213 174 147 178 176 130 154 186 245 265 226 302 268 169 176 190 199 222
152 195 175 162 207 194 191 154 209 164 193 130 107 98 162 166 180 192 192 188 190 173 168 183 133 181 198 355 300 203 195 154 151 184 232 164 270 332 347 69 128 164 177 212 227
175 189 153 165 209 198 90 143 207 164 170 171 136 151 162 158 162 184 163 217 169 173 169 168 179 120 82 313 339 224 182 178 127 109 194 152 260 345 115 96 124 138 176 232 259
122 167 257 249 183 190 170 151 182 185 147 131 118 110 108 158 24 170 155 110 181 161 148 115 129 169 199 212 144 190 195 187 196 204 181 204 177 257 228 153 155 176 207 245 246
132 216 190 202 214 181 198 160 159 163 217 154 63 167 145 146 117 142 142 117 56 140 117 123 192 199 272 209 194 176 179 200 210 208 205 175 201 225 234 220 191 224 253 229 252
148 177 210 166 154 188 188 184 168 173 159 195 160 169 160 156 175 175 140 150 171 144 125 165 130 159 221 319 99 224 217 207 219 228 256 240 256 218 242 281 249 241 253 270 282
165 228 234 155 180 180 176 175 178 149 78 161 152 146 133 174 133 132 95 108 155 148 131 131 124 111 242 353 22 278 210 196 188 187 223 231 242 207 226 235 230 249 249 262 272
Height
782 786 788 791 794 798 801 803 806 809 811 812 813 814 814 814 814 814 814 813 812 810 810 808 808 806 803 804 804 808 832 838 826 829 816 809 812 811 810 815 816 817 820 818 821
779 782 786 788 791 795 799 802 804 807 809 811 812 813 814 814 813 813 812 811 811 810 810 810 811 809 810 808 809 818 835 829 816 816 814 812 808 811 814 817 819 819 818 818 821
775 778 782 786 789 793 796 800 803 806 808 810 812 812 813 814 816 810 809 810 810 809 811 811 812 811 812 810 811 819 828 819 814 814 815 813 812 809 816 821 815 816 817 818 821
772 775 778 782 786 790 793 797 800 804 806 808 810 811 812 814 821 808 809 809 809 810 810 811 813 814 817 816 812 819 816 815 815 816 813 815 813 813 812 811 806 807 809 816 820
767 771 775 778 783 787 791 795 799 802 804 807 808 810 811 815 812 808 808 808 809 810 810 813 814 815 818 817 815 818 816 815 816 816 817 814 821 819 814 811 808 810 813 816 820
765 767 772 775 779 783 788 792 797 800 803 805 807 809 810 816 807 807 808 809 809 810 811 813 813 812 815 816 819 817 818 819 817 818 818 818 819 818 815 813 815 815 815 817 819
763 763 768 773 776 781 785 790 795 799 801 804 806 808 810 809 806 807 808 809 809 810 811 811 810 812 813 817 815 819 824 824 821 818 820 818 822 821 818 818 819 820 819 819 819
758 762 765 770 774 778 783 788 792 796 800 805 806 809 809 804 805 807 807 808 809 809 810 809 809 811 814 816 822 827 833 837 825 822 820 821 832 819 818 822 823 822 822 821 820
753 758 761 766 771 775 781 786 791 795 799 805 806 809 807 803 805 805 807 808 809 810 809 809 809 815 817 830 837 837 845 843 835 825 825 827 832 819 817 820 823 826 824 822 822
750 752 757 762 767 772 779 785 790 796 801 805 805 811 804 802 802 804 806 808 809 809 811 812 817 823 827 833 843 840 842 840 838 826 829 832 831 823 819 820 823 823 823 823 822
744 749 752 756 764 769 778 782 789 791 793 794 795 796 797 799 802 804 806 808 809 811 819 816 824 826 819 823 824 833 835 834 829 824 828 833 831 824 818 819 820 820 820 820 821
742 745 751 753 758 766 772 771 773 776 788 793 794 795 796 797 803 804 806 810 812 818 818 825 827 820 821 823 827 829 831 833 825 823 828 827 830 821 815 812 809 808 812 815 821
739 742 746 749 753 760 764 769 773 775 788 793 794 795 797 799 801 803 805 810 815 819 821 824 818 816 821 827 830 833 834 831 831 828 826 832 827 820 807 804 802 802 802 807 812
735 737 742 748 756 751 758 770 772 774 796 793 791 792 795 798 802 799 803 808 814 820 823 821 814 817 823 827 829 837 830 829 833 837 846 835 849 820 806 803 797 798 800 803 810
731 735 740 745 747 749 756 766 770 776 785 780 785 782 788 796 797 800 803 807 816 817 821 821 818 819 823 822 824 829 827 832 834 840 842 843 847 826 813 802 797 801 805 809 812
728 732 737 740 744 749 754 763 769 785 766 780 775 780 788 793 796 801 805 806 809 815 815 817 813 815 817 815 818 823 831 838 846 850 869 843 843 830 811 799 799 804 809 812 816
726 731 732 737 734 742 751 757 762 749 776 770 767 772 777 785 797 799 803 808 813 820 823 817 816 814 812 820 820 823 835 876 875 857 862 839 844 828 803 795 795 802 810 815 819
724 730 730 732 736 740 745 746 738 746 764 755 759 769 775 781 788 795 801 800 808 809 824 817 827 815 811 812 818 827 829 857 859 860 851 848 838 813 799 801 799 801 812 817 822
722 724 727 730 733 736 733 725 721 736 750 750 760 770 773 775 779 788 793 792 798 808 814 828 818 809 808 807 808 824 826 831 850 892 866 844 827 806 798 805 810 814 815 820 822
718 723 721 723 729 734 741 716 730 733 737 739 748 756 763 772 775 781 789 781 793 798 800 804 820 811 810 806 811 815 821 834 859 869 877 839 830 814 798 800 814 818 819 820 820
717 722 713 718 726 730 727 726 729 729 728 739 754 752 753 761 772 778 780 781 782 792 797 800 806 815 810 810 809 816 819 821 831 849 847 851 825 813 803 801 811 816 817 818 819
713 720 710 716 726 725 718 731 724 726 732 737 743 749 750 756 771 774 777 772 775 780 794 796 806 806 804 812 813 805 811 816 829 836 851 843 827 807 808 806 809 814 815 817 818
709 711 710 713 715 713 723 724 723 722 731 736 737 735 745 755 769 767 775 773 775 780 785 794 809 823 813 816 813 808 809 810 817 827 828 837 826 815 810 808 808 811 812 813 815
705 710 714 710 708 715 718 720 726 718 722 726 732 732 747 756 765 767 773 775 777 779 784 785 805 805 802 796 805 808 808 810 806 818 813 820 816 814 812 810 811 811 812 815 816
698 700 698 698 703 706 711 713 718 723 716 718 727 728 738 755 767 773 774 776 781 779 787 790 800 805 797 795 800 799 803 802 805 806 807 809 813 808 805 806 807 807 810 812 812
694 694 698 694 698 700 702 701 702 718 715 714 714 725 727 733 743 763 762 768 773 782 787 789 802 803 811 804 803 800 803 802 800 802 807 810 809 802 799 800 804 804 807 808 808
686 686 685 683 690 688 692 692 690 700 707 706 710 718 730 728 735 742 750 756 762 769 782 789 804 810 810 824 815 813 815 802 799 798 795 800 791 795 799 798 800 801 802 803 802